Regional Weather Roundup
Issued by NWS

Home | Current Version | Previous Version | Graphics & Text | Print | Product List | Glossary On
Versions: 1 2 3 4 5 6 7 8 9 10 11 12 13 14 15 16 17 18 19 20 21 22 23 24 25 26 27 28 29 30 31 32 33 34 35 36 37 38 39 40 41 42 43 44 45 46 47 48 49 50
000
ASUS44 KMEG 220010
RWRTN
TENNESSEE HOURLY STATE WEATHER ROUNDUP
NATIONAL WEATHER SERVICE MEMPHIS TN
700 PM CDT TUE OCT 21 2014

TNZ002-004-019-021-049-052-054-088>092-220100-
WEST TENNESSEE

CITY           SKY/WX    TMP DP  RH WIND       PRES   REMARKS
MEMPHIS INTL   CLEAR     69  45  41 CALM      30.06R
NWS MEMPHIS      N/A     62 N/A N/A MISG        N/A
JACKSON        CLEAR     59  50  72 CALM      30.06R
DYERSBURG      CLEAR     63  41  45 N6        30.08R
UNION CITY     CLEAR     57  46  67 NE5       30.07R
PARIS          CLEAR     57  45  62 N6        30.08R
HUNTINGDON     CLEAR     58  47  66 CALM      30.07R
LEXINGTON      CLEAR     57  48  72 CALM      30.05R
SAVANNAH       CLEAR     57  52  82 CALM      30.05R
$$

TNZ008-025-027-028-033-062-065-066-220100-
NORTH MIDDLE TENNESSEE

CITY           SKY/WX    TMP DP  RH WIND       PRES   REMARKS
NASHVILLE      CLEAR     62  46  55 N8        30.06R
CLARKSVILLE    CLEAR     59  44  57 N7        30.08R
SMYRNA         CLEAR     62  47  58 N8        30.07R
COOKEVILLE     CLEAR     57  46  67 NE6       30.06R
CROSSVILLE     CLEAR     56  42  59 N9        30.07R
$$

TNZ061-075-076-078-094-096-097-220100-
SOUTH MIDDLE TENNESSEE

CITY           SKY/WX    TMP DP  RH WIND       PRES   REMARKS
FAYETTEVILLE   CLEAR     61  45  55 N24G58    30.04R
TULLAHOMA      CLEAR     55  46  71 N5        30.05R
WINCHESTER     CLEAR     54  48  82 CALM      30.04R
MCMINNVILLE    CLEAR     59  48  67 CALM      30.05R
COLUMBIA       CLEAR     59  52  77 CALM      30.04R
SHELBYVILLE    CLEAR     61  48  63 N5        30.05R
$$

TNZ017-018-042-046-047-220100-
NORTHEAST TENNESSEE

CITY           SKY/WX    TMP DP  RH WIND       PRES   REMARKS
TRI CITIES     MOCLDY    53  38  56 NW9       30.05R
ELIZABETHTON   CLOUDY    52  37  58 NW5       30.04R
$$

TNZ012-013-036-069-073-074-220100-
CENTRAL EAST TENNESSEE

CITY           SKY/WX    TMP DP  RH WIND       PRES   REMARKS
KNOXVILLE      MOCLDY    59  42  53 N12       30.04R
OAK RIDGE      MOCLDY    59  43  55 VRB3      30.07R
GATLINBURG     CLEAR     57  41  54 N8        30.05R
MORRISTOWN     MOCLDY    55  41  58 N9        30.07R
$$

TNZ083-085-099-220100-
SOUTHEAST TENNESSEE

CITY           SKY/WX    TMP DP  RH WIND       PRES   REMARKS
CHATTANOOGA    PTCLDY    61  47  59 N7        30.02R
$$

SKY/WX REPORTED AS FAIR MEANS FEW OR NO CLOUDS BELOW
12 THOUSAND FEET.




USA.gov is the U.S. government's official web portal to all federal, state and local government web resources and services.